Starlink 32934

operational
NORAD ID: 63200 Int'l Des: 2025-048 Owner: SPXS Country: US Constellation: starlink
LEOCIRCULAR

About Starlink 32934

Description loading...

Live Position

Loading 3D Globe...

Upcoming Passes

Altitude History

Altitude vs Time

uPlot chart will show altitude changes over time

Two-Line Element Set

1 63200U 25048T 26015.06282064 .00016583 00000-0 61058-3 0 9998
2 63200 43.0012 27.9143 0000377 283.2559 76.8250 15.27589967 48896
Epoch: Jan 15, 2026 • Age: 25 hours

Current Status

Altitude 496.0 km
Velocity 7.62 km/s
Sub-Earth Point -43.13°S, 140.84°E
Launch Date Mar 13, 2025
Age 0.8 years
Type internet

Technical Details

Classification Payload
Mass 730.00 kg
Dry Mass 700.00 kg
Total Mass 730.00 kg
Length 0.30 m
Diameter 4.10 m
Span 29.00 m
Shape Box + pan
Manufacturer SPXS
Bus Type Starlink V2M
Phase Status In Orbit
Owner/State SPXS/US

Large Constellations

Loading constellations...